Brisbane, Australia

5:46 AM AEST on June 27, 2017 (GMT +1000)
Brisbane International

Weather History for YBBN - September, 2013

Change the Weather History Date:

Thursday, September 19, 2013

  Actual Average Record
Temperature  
Mean Temperature 66 °F -  
Max Temperature 79 °F 77 °F 84 °F (2002)
Min Temperature 54 °F 58 °F 46 °F (1999)
Cooling Degree Days 2    
Growing Degree Days 16 (Base 50)    
Moisture  
Dew Point 62 °F    
Average Humidity 80    
Maximum Humidity 100    
Minimum Humidity 55    
Precipitation  
Precipitation 0.00 in 0.10 in - ()
Sea Level Pressure  
Sea Level Pressure 29.76 in    
Wind  
Wind Speed 8 mph ()    
Max Wind Speed 22 mph    
Max Gust Speed -    
Visibility 8.5 miles    
Events Fog    
Averages and records for this station are not official NWS values.
T = Trace of Precipitation, MM = Missing Value Source: Averaged Metar Reports

Daily Weather History Graph

Daily Weather History Graph

Search for Another Location

Airport or City:

Trip Planner

Search our weather history database for the weather conditions in past years. The results will help you decide how hot, cold, wet, or windy it might be!

Date:

Astronomy

Sep. 19, 2013 Rise Set
Actual Time 5:41 AM AEST 5:42 PM AEST
Civil Twilight 5:17 AM AEST 6:05 PM AEST
Nautical Twilight 4:50 AM AEST 6:32 PM AEST
Astronomical Twilight 4:23 AM AEST 6:59 PM AEST
Moon 5:30 PM AEST (9/19) 5:04 AM AEST (9/19)
Length of Visible Light 12h 47m
Length of Day
12h 01m
Full, 100% of the Moon is Illuminated
Sep 19
Full
Sep 19
Full
Sep 27
Last Quarter
Oct 5
New
Oct 12
First Quarter

Hourly Weather History & Observations

Time (AEST) Temp. Dew Point Humidity Pressure Visibility Wind Dir Wind Speed Gust Speed Precip Events Conditions
12:00 AM 61 °F 60 °F 96% 29.83 in 19 mi North 1.2 mph - -   Partly Cloudy
12:00 AM 60.8 °F 60.8 °F 100% 29.83 in - North 1.2 mph - N/A   Clear
12:30 AM 60.8 °F 57.2 °F 88% 29.80 in - North 8.1 mph - N/A   Clear
1:00 AM 60 °F 53 °F 70% 29.81 in - West 5.8 mph - -  
1:00 AM 60.8 °F 53.6 °F 77% 29.80 in - West 5.8 mph - N/A   Clear
1:30 AM 59.0 °F 53.6 °F 82% 29.80 in - NNW 3.5 mph - N/A   Clear
2:00 AM 57.2 °F 53.6 °F 88% 29.80 in - Calm Calm - N/A   Clear
2:30 AM 57.2 °F 53.6 °F 88% 29.77 in - West 4.6 mph - N/A   Clear
3:00 AM 57 °F 53 °F 80% 29.79 in 19 mi Calm Calm - -   Partly Cloudy
3:00 AM 57.2 °F 51.8 °F 82% 29.77 in - Calm Calm - N/A   Clear
3:30 AM 57.2 °F 51.8 °F 82% 29.77 in - NW 4.6 mph - N/A   Clear
4:00 AM 56 °F 51 °F 77% 29.80 in - WSW 5.8 mph - -  
4:00 AM 55.4 °F 51.8 °F 88% 29.77 in - WSW 5.8 mph - N/A   Clear
4:30 AM 59.0 °F 55.4 °F 88% 29.80 in - SSW 5.8 mph - N/A   Clear
5:00 AM 57.2 °F 55.4 °F 94% 29.80 in 6.2 mi SW 5.8 mph - N/A   Partly Cloudy
5:14 AM 57.2 °F 55.4 °F 94% 29.80 in 6.2 mi SSW 3.5 mph - N/A Fog Shallow Fog
5:30 AM 57.2 °F 55.4 °F 94% 29.80 in 6.2 mi WSW 2.3 mph - N/A Fog Shallow Fog
6:00 AM 56 °F 54 °F 89% 29.82 in 19 mi SSW 1.2 mph - - Fog Patches of Fog
6:00 AM 55.4 °F 53.6 °F 94% 29.80 in 6.2 mi SSW 1.2 mph - N/A Fog Shallow Fog
6:30 AM 57.2 °F 55.4 °F 94% 29.83 in 6.2 mi North 2.3 mph - N/A   Partly Cloudy
7:00 AM 61 °F 58 °F 88% 29.84 in - NW 3.5 mph - -  
7:00 AM 60.8 °F 59.0 °F 94% 29.83 in 6.2 mi NW 3.5 mph - N/A   Partly Cloudy
7:30 AM 66.2 °F 62.6 °F 88% 29.83 in 6.2 mi NNW 5.8 mph - N/A   Partly Cloudy
8:00 AM 66.2 °F 62.6 °F 88% 29.83 in 6.2 mi NNW 8.1 mph - N/A   Partly Cloudy
8:30 AM 68.0 °F 62.6 °F 83% 29.83 in 6.2 mi North 9.2 mph - N/A   Partly Cloudy
9:00 AM 70 °F 60 °F 62% 29.84 in 16 mi North 11.5 mph - -   Haze
9:00 AM 69.8 °F 60.8 °F 73% 29.83 in - North 11.5 mph - N/A   Clear
9:30 AM 69.8 °F 60.8 °F 73% 29.83 in - North 11.5 mph - N/A   Clear
10:00 AM 72 °F 60 °F 56% 29.83 in - North 10.4 mph - -  
10:00 AM 71.6 °F 59.0 °F 64% 29.80 in - North 10.4 mph - N/A   Clear
10:30 AM 75.2 °F 62.6 °F 65% 29.80 in - North 15.0 mph - N/A   Clear
11:00 AM 77.0 °F 62.6 °F 61% 29.80 in - North 13.8 mph - N/A   Clear
11:30 AM 77.0 °F 66.2 °F 69% 29.77 in 6.2 mi NNE 15.0 mph - N/A   Partly Cloudy
12:00 PM 77 °F 66 °F 60% 29.76 in 16 mi North 16.1 mph - -   Haze
12:00 PM 77.0 °F 66.2 °F 69% 29.74 in 6.2 mi North 16.1 mph - N/A   Partly Cloudy
12:30 PM 78.8 °F 66.2 °F 65% 29.74 in 6.2 mi NNE 17.3 mph - N/A   Partly Cloudy
1:00 PM 79 °F 67 °F 60% 29.72 in - NNE 19.6 mph - -  
1:00 PM 78.8 °F 68.0 °F 69% 29.71 in 6.2 mi NNE 19.6 mph - N/A   Partly Cloudy
1:30 PM 78.8 °F 66.2 °F 65% 29.68 in 6.2 mi NNE 21.9 mph - N/A   Partly Cloudy
2:00 PM 78.8 °F 66.2 °F 65% 29.68 in 6.2 mi North 21.9 mph - N/A   Partly Cloudy
2:30 PM 78.8 °F 68.0 °F 69% 29.65 in 6.2 mi NNE 19.6 mph - N/A   Partly Cloudy
3:00 PM 79 °F 65 °F 55% 29.67 in 12 mi North 20.7 mph - -   Haze
3:00 PM 78.8 °F 66.2 °F 65% 29.65 in 6.2 mi North 20.7 mph - N/A   Partly Cloudy
3:30 PM 78.8 °F 66.2 °F 65% 29.65 in 6.2 mi North 20.7 mph - N/A   Partly Cloudy
4:00 PM 78 °F 67 °F 62% 29.66 in - North 20.7 mph - -  
4:00 PM 77.0 °F 68.0 °F 74% 29.65 in 6.2 mi North 20.7 mph - N/A   Partly Cloudy
4:30 PM 75.2 °F 68.0 °F 78% 29.65 in 6.2 mi North 17.3 mph - N/A   Scattered Clouds
5:00 PM 75.2 °F 68.0 °F 78% 29.65 in 6.2 mi North 19.6 mph - N/A   Partly Cloudy
5:30 PM 73.4 °F 66.2 °F 78% 29.68 in - North 19.6 mph - N/A   Clear
6:00 PM 73 °F 67 °F 75% 29.70 in 9 mi North 20.7 mph - -   Haze
6:00 PM 73.4 °F 66.2 °F 78% 29.68 in - North 20.7 mph - N/A   Clear
6:30 PM 73.4 °F 68.0 °F 83% 29.71 in - North 17.3 mph - N/A   Clear
7:00 PM 72 °F 68 °F 83% 29.72 in - North 15.0 mph - -  
7:00 PM 71.6 °F 68.0 °F 88% 29.71 in - North 15.0 mph - N/A   Clear
7:30 PM 71.6 °F 68.0 °F 88% 29.71 in - North 15.0 mph - N/A   Clear
8:00 PM 71.6 °F 68.0 °F 88% 29.74 in - North 15.0 mph - N/A   Clear
8:30 PM 71.6 °F 68.0 °F 88% 29.74 in - North 10.4 mph - N/A   Clear
9:00 PM 71 °F 68 °F 87% 29.75 in 7 mi North 12.7 mph - -   Haze
9:00 PM 71.6 °F 68.0 °F 88% 29.74 in - North 12.7 mph - N/A   Clear
9:30 PM 69.8 °F 68.0 °F 94% 29.74 in - North 10.4 mph - N/A   Clear
10:00 PM 70 °F 68 °F 90% 29.75 in - North 9.2 mph - -  
10:00 PM 69.8 °F 68.0 °F 94% 29.74 in - North 9.2 mph - N/A   Clear
10:30 PM 69.8 °F 68.0 °F 94% 29.74 in - North 8.1 mph - N/A   Clear
11:00 PM 69.8 °F 66.2 °F 88% 29.74 in - NNW 9.2 mph - N/A   Clear